KC3ROS Weather Reports


Display with metric or nautical units.
time (UTC)temp
F
wind
direction
speed
MPH
gust
MPH
rain 1hr
in
rain 24hr
in
rain mn
in
humidity
%
barometer
mb
20260906152621 71 35 0.0 2.0 0.00 0.00 0.00 79 1017.7
20260906152115 70 19 1.0 3.0 0.00 0.00 0.00 75 1017.8
20260906151610 71 33 3.0 4.0 0.00 0.00 0.00 75 1017.6
20260906151106 71 356 2.0 3.0 0.00 0.00 0.00 78 1017.7
20260906150601 70 66 2.0 3.0 0.00 0.00 0.00 77 1017.6
20260906150056 70 14 1.0 3.0 0.00 0.00 0.00 79 1017.7
20260906145555 70 2 2.0 3.0 0.00 0.00 0.00 78 1017.6
20260906145050 70 11 1.0 3.0 0.00 0.00 0.00 79 1017.3
20260906144544 70 22 2.0 2.0 0.00 0.00 0.00 80 1017.5
20260906144040 69 41 0.0 2.0 0.00 0.00 0.00 82 1017.4
20260906143535 69 38 0.0 2.0 0.00 0.00 0.00 83 1017.3
20260906143031 68 62 2.0 2.0 0.00 0.00 0.00 82 1017.3
20260906142525 68 61 3.0 3.0 0.00 0.00 0.00 85 1017.5
20260906142020 68 22 0.0 2.0 0.00 0.00 0.00 86 1017.4
20260906141513 67 56 1.0 4.0 0.00 0.00 0.00 84 1017.2
20260906141008 67 54 2.0 3.0 0.00 0.00 0.00 86 1017.3
20260906140503 67 37 2.0 3.0 0.00 0.00 0.00 86 1017.2
20260906140001 67 7 2.0 3.0 0.00 0.00 0.00 86 1017.2
20260906135459 66 15 0.0 2.0 0.00 0.00 0.00 88 1017.2
20260906134954 65 48 2.0 4.0 0.00 0.00 0.00 88 1017.3
20260906134451 66 15 1.0 3.0 0.00 0.00 0.00 88 1017.0
20260906133951 64 25 0.0 3.0 0.00 0.00 0.00 90 1017.1
20260906133447 64 30 1.0 2.0 0.00 0.00 0.00 89 1017.0
20260906132942 64 22 1.0 2.0 0.00 0.00 0.00 90 1017.1
20260906132437 64 59 2.0 3.0 0.00 0.00 0.00 90 1017.1
20260906131933 64 61 1.0 3.0 0.00 0.00 0.00 91 1017.1
20260906131428 64 6 0.0 3.0 0.00 0.00 0.00 91 1017.2
20260906130924 64 26 2.0 3.0 0.00 0.00 0.00 91 1017.1
20260906130422 64 50 0.0 2.0 0.00 0.00 0.00 89 1017.1
20260906125917 63 15 1.0 2.0 0.00 0.00 0.00 90 1017.1
20260906125414 62 60 1.0 2.0 0.00 0.00 0.00 90 1017.1
20260906124908 62 24 2.0 3.0 0.00 0.00 0.00 91 1017.0
20260906124405 62 24 2.0 3.0 0.00 0.00 0.00 92 1016.8
20260906123904 61 55 2.0 3.0 0.00 0.00 0.00 93 1016.7
20260906123359 61 27 2.0 3.0 0.00 0.00 0.00 95 1016.7
20260906122858 60 25 2.0 3.0 0.00 0.00 0.00 96 1016.5
20260906122353 59 35 2.0 3.0 0.00 0.00 0.00 98 1016.4
20260906121850 59 33 1.0 3.0 0.00 0.00 0.00 98 1016.2
20260906121346 59 31 3.0 3.0 0.00 0.00 0.00 98 1016.3
20260906120842 59 36 3.0 4.0 0.00 0.00 0.00 99 1016.1
20260906120337 59 19 2.0 3.0 0.00 0.00 0.00 99 1016.3
20260906115833 58 25 2.0 4.0 0.00 0.00 0.00 99 1016.2
20260906115328 58 12 2.0 4.0 0.00 0.00 0.00 99 1016.3
20260906114828 58 13 2.0 3.0 0.00 0.00 0.00 99 1016.2
20260906114323 58 11 2.0 4.0 0.00 0.00 0.00 99 1016.2
20260906113818 58 5 3.0 3.0 0.00 0.00 0.00 99 1016.3
20260906113317 58 24 2.0 3.0 0.00 0.00 0.00 99 1016.1
20260906112812 57 29 3.0 3.0 0.00 0.00 0.00 99 1015.9
20260906112308 57 23 2.0 3.0 0.00 0.00 0.00 99 1015.8
20260906111803 57 27 2.0 3.0 0.00 0.00 0.00 99 1015.7
20260906111302 57 25 2.0 3.0 0.00 0.00 0.00 99 1015.7
20260906110757 57 17 2.0 3.0 0.00 0.00 0.00 99 1015.6
20260906110253 57 31 3.0 3.0 0.00 0.00 0.00 99 1015.7
20260906105752 58 24 3.0 4.0 0.00 0.00 0.00 98 1015.6
20260906105248 58 34 3.0 4.0 0.00 0.00 0.00 98 1015.5
20260906104743 58 27 3.0 3.0 0.00 0.00 0.00 98 1015.4
20260906104242 58 25 3.0 3.0 0.00 0.00 0.00 98 1015.5
20260906103740 58 19 1.0 3.0 0.00 0.00 0.00 98 1015.4
20260906103234 58 18 2.0 4.0 0.00 0.00 0.00 98 1015.3
20260906102730 58 30 3.0 4.0 0.00 0.00 0.00 98 1015.5
20260906102229 58 30 3.0 4.0 0.00 0.00 0.00 98 1015.6
20260906101724 58 23 2.0 4.0 0.00 0.00 0.00 98 1015.5
20260906101219 58 25 3.0 4.0 0.00 0.00 0.00 98 1015.3
20260906100715 58 29 3.0 4.0 0.00 0.00 0.00 98 1015.5
20260906100215 58 24 3.0 4.0 0.00 0.00 0.00 98 1015.4
20260906095715 58 25 3.0 4.0 0.00 0.00 0.00 98 1015.2
20260906095210 58 29 3.0 3.0 0.00 0.00 0.00 98 1015.2
20260906094709 58 24 2.0 4.0 0.00 0.00 0.00 98 1015.3
20260906094205 58 30 2.0 3.0 0.00 0.00 0.00 98 1015.2
20260906093701 58 22 2.0 4.0 0.00 0.00 0.00 98 1015.3
20260906093156 58 30 2.0 3.0 0.00 0.00 0.00 98 1015.5
20260906092651 58 30 3.0 4.0 0.00 0.00 0.00 98 1015.3
20260906092151 58 1 2.0 3.0 0.00 0.00 0.00 98 1015.3
20260906091647 58 29 2.0 4.0 0.00 0.00 0.00 98 1015.1
20260906091143 58 18 3.0 4.0 0.00 0.00 0.00 98 1015.2
20260906090639 58 12 3.0 3.0 0.00 0.00 0.00 98 1015.3
20260906090138 58 11 2.0 4.0 0.00 0.00 0.00 98 1015.1
20260906085637 58 24 3.0 4.0 0.00 0.00 0.00 98 1015.2
20260906085132 58 11 3.0 4.0 0.00 0.00 0.00 97 1015.0
20260906084626 59 22 3.0 4.0 0.00 0.00 0.00 97 1015.1
20260906084125 59 31 2.0 4.0 0.00 0.00 0.00 97 1014.9
20260906083621 59 24 2.0 3.0 0.00 0.00 0.00 97 1015.1
20260906083115 59 11 3.0 4.0 0.00 0.00 0.00 97 1015.1
20260906082611 59 29 2.0 3.0 0.00 0.00 0.00 97 1014.9
20260906082106 59 33 2.0 3.0 0.00 0.00 0.00 97 1014.9
20260906081601 59 8 2.0 3.0 0.00 0.00 0.00 97 1015.0
20260906081051 59 7 3.0 4.0 0.00 0.00 0.00 97 1015.0
20260906080548 59 30 2.0 3.0 0.00 0.00 0.00 97 1014.8
20260906080043 59 7 2.0 3.0 0.00 0.00 0.00 96 1014.8
20260906075538 59 14 3.0 4.0 0.00 0.00 0.00 96 1014.9
20260906075032 59 26 3.0 4.0 0.00 0.00 0.00 96 1014.7
20260906074527 59 26 2.0 4.0 0.00 0.00 0.00 96 1015.0
20260906074025 59 18 3.0 3.0 0.00 0.00 0.00 96 1015.0
20260906073521 59 35 2.0 3.0 0.00 0.00 0.00 96 1014.9
20260906073017 59 10 2.0 3.0 0.00 0.00 0.00 96 1014.8
20260906072512 59 18 2.0 4.0 0.00 0.00 0.00 96 1014.7
20260906072008 60 6 2.0 3.0 0.00 0.00 0.00 95 1014.7
20260906071504 60 28 2.0 3.0 0.00 0.00 0.00 95 1014.5
20260906070959 60 24 2.0 3.0 0.00 0.00 0.00 95 1014.7
20260906070455 60 41 1.0 3.0 0.00 0.00 0.00 95 1014.7
20260906065950 60 15 2.0 3.0 0.00 0.00 0.00 94 1014.6
20260906065450 60 6 2.0 3.0 0.00 0.00 0.00 94 1014.8
20260906064945 60 8 2.0 3.0 0.00 0.00 0.00 94 1014.7
20260906064442 60 10 2.0 3.0 0.00 0.00 0.00 94 1014.7
20260906063936 60 26 2.0 3.0 0.00 0.00 0.00 94 1014.7
20260906063432 60 20 2.0 3.0 0.00 0.00 0.00 93 1014.6
20260906062926 60 13 2.0 3.0 0.00 0.00 0.00 93 1014.6
20260906062421 60 24 2.0 3.0 0.00 0.00 0.00 93 1014.6
20260906061915 61 11 2.0 3.0 0.00 0.00 0.00 93 1014.5
20260905232100 74 0 3.0 3.0 0.00 0.00 0.00 77 1013.2
20260905231555 74 0 3.0 3.0 0.00 0.00 0.00 77 1013.2
20260905231051 74 0 2.0 4.0 0.00 0.00 0.00 77 1013.3
20260905230550 74 359 3.0 4.0 0.00 0.00 0.00 77 1013.2
20260905230049 74 350 2.0 3.0 0.00 0.00 0.00 77 1013.1
20260905225549 75 351 2.0 3.0 0.00 0.00 0.00 76 1013.3
20260905225044 75 0 2.0 3.0 0.00 0.00 0.00 77 1013.3
20260905224543 75 0 2.0 3.0 0.00 0.00 0.00 77 1013.2
20260905224043 75 340 2.0 3.0 0.00 0.00 0.00 78 1013.1
20260905223541 75 355 2.0 4.0 0.00 0.00 0.00 78 1013.1
20260905223036 75 348 2.0 6.0 0.00 0.00 0.00 77 1013.0
20260905222531 76 342 4.0 5.0 0.00 0.00 0.00 78 1012.9
20260905222026 76 356 1.0 3.0 0.00 0.00 0.00 77 1012.8
20260905221523 76 354 2.0 4.0 0.00 0.00 0.00 77 1012.9
20260905221019 76 345 2.0 5.0 0.00 0.00 0.00 78 1012.9
20260905220514 77 355 2.0 6.0 0.00 0.00 0.00 77 1012.8
20260905220010 76 345 2.0 3.0 0.00 0.00 0.00 77 1013.0
20260905215505 76 352 2.0 3.0 0.00 0.00 0.00 79 1012.7
20260905215001 75 347 2.0 3.0 0.00 0.00 0.00 81 1012.8
20260905214456 75 335 2.0 3.0 0.00 0.00 0.00 82 1012.7
20260905213956 75 4 0.0 2.0 0.00 0.00 0.00 82 1012.5
20260905213452 75 353 1.0 3.0 0.00 0.00 0.00 81 1012.6
20260905212947 76 332 3.0 6.0 0.00 0.00 0.00 80 1012.6
20260905212442 76 356 2.0 3.0 0.00 0.00 0.00 81 1012.6
20260905211940 75 6 2.0 3.0 0.00 0.00 0.00 82 1012.4
20260905211431 76 4 2.0 6.0 0.00 0.00 0.00 81 1012.5
20260905210926 76 349 3.0 5.0 0.00 0.00 0.00 80 1012.7
20260905210421 76 352 2.0 3.0 0.00 0.00 0.00 80 1012.7
20260905205920 75 323 1.0 2.0 0.00 0.00 0.00 82 1012.5
20260905205415 75 10 2.0 6.0 0.00 0.00 0.00 83 1012.6
20260905204914 75 10 1.0 2.0 0.00 0.00 0.00 83 1012.7
20260905204411 75 357 2.0 3.0 0.00 0.00 0.00 82 1012.7
20260905203909 76 14 1.0 2.0 0.00 0.00 0.00 83 1012.6
20260905203405 75 11 1.0 2.0 0.00 0.00 0.00 84 1012.7
20260905202900 75 0 1.0 3.0 0.00 0.00 0.00 83 1012.7
20260905202355 75 5 2.0 3.0 0.00 0.00 0.00 83 1012.9
20260905201850 75 7 0.0 2.0 0.00 0.00 0.00 82 1012.7
20260905201346 76 356 2.0 2.0 0.00 0.00 0.00 84 1012.9
20260905200840 76 351 2.0 3.0 0.00 0.00 0.00 83 1012.9
20260905200336 75 340 0.0 2.0 0.00 0.00 0.00 82 1012.8
20260905195833 75 350 1.0 3.0 0.00 0.00 0.00 84 1013.1
20260905195329 75 15 0.0 2.0 0.00 0.00 0.00 84 1013.0
20260905194825 75 2 0.0 2.0 0.00 0.00 0.00 83 1013.0
20260905194319 75 359 1.0 3.0 0.00 0.00 0.00 82 1013.2
20260905193818 75 18 2.0 3.0 0.00 0.00 0.00 83 1013.1
20260905193313 75 7 1.0 2.0 0.00 0.00 0.00 82 1013.0
20260905192809 76 2 1.0 2.0 0.00 0.00 0.00 82 1013.0
20260905192306 75 356 2.0 2.0 0.00 0.00 0.00 84 1013.3
20260905191804 75 336 0.0 3.0 0.00 0.00 0.00 83 1013.2
20260905191302 76 337 2.0 2.0 0.00 0.00 0.00 82 1013.2
20260905190801 77 349 0.0 3.0 0.00 0.00 0.00 82 1013.5
20260905190255 75 1 0.0 2.0 0.00 0.00 0.00 82 1013.4
20260905185754 76 359 1.0 2.0 0.00 0.00 0.00 83 1013.4
20260905185248 74 351 0.0 1.0 0.00 0.00 0.00 85 1013.3
20260905184742 75 10 1.0 1.0 0.00 0.00 0.00 86 1013.6
20260905184241 74 351 0.0 1.0 0.00 0.00 0.00 87 1013.6
20260905183735 74 313 0.0 2.0 0.00 0.00 0.00 87 1013.6
20260905183231 74 352 2.0 3.0 0.00 0.00 0.00 86 1013.5
20260905182725 75 3 2.0 3.0 0.00 0.00 0.00 85 1013.7
20260905182224 75 356 2.0 5.0 0.00 0.00 0.00 85 1013.7
20260905181714 75 358 2.0 2.0 0.00 0.00 0.00 84 1013.5
20260905181213 73 23 2.0 2.0 0.00 0.00 0.00 86 1013.6
20260905180708 73 352 1.0 2.0 0.00 0.00 0.00 88 1013.6
20260905180203 74 15 2.0 4.0 0.00 0.00 0.00 88 1013.8
20260905175703 74 2 1.0 3.0 0.00 0.00 0.00 86 1013.8
20260905175158 75 18 3.0 4.0 0.00 0.00 0.00 85 1014.0
20260905174653 75 22 2.0 3.0 0.00 0.00 0.00 86 1013.8
20260905174149 73 316 1.0 2.0 0.00 0.00 0.00 88 1013.7
20260905173644 73 349 2.0 5.0 0.00 0.00 0.00 90 1013.7
20260905173140 73 351 2.0 3.0 0.00 0.00 0.00 89 1013.8
20260905172639 74 359 2.0 4.0 0.00 0.00 0.00 89 1013.6
20260905172134 74 32 2.0 3.0 0.00 0.00 0.00 88 1013.8
20260905171630 75 343 2.0 7.0 0.00 0.00 0.00 86 1013.9
20260905171125 74 3 2.0 4.0 0.00 0.00 0.00 86 1013.8
20260905170621 73 351 2.0 3.0 0.00 0.00 0.00 88 1013.9
20260905170117 73 335 3.0 5.0 0.00 0.00 0.00 88 1013.9
20260905165612 73 345 2.0 3.0 0.00 0.00 0.00 88 1014.2
20260905165107 74 4 2.0 2.0 0.00 0.00 0.00 88 1014.4
20260905164601 74 0 2.0 4.0 0.00 0.00 0.00 88 1014.3
20260905164055 73 8 1.0 2.0 0.00 0.00 0.00 90 1014.2
20260905163552 73 2 1.0 2.0 0.00 0.00 0.00 90 1014.2
20260905163048 73 358 2.0 5.0 0.00 0.00 0.00 90 1014.5
20260905162544 73 0 1.0 3.0 0.00 0.00 0.00 90 1014.5
20260905162038 73 25 0.0 2.0 0.00 0.00 0.00 90 1014.5
20260905161537 73 353 1.0 2.0 0.00 0.00 0.00 90 1014.4
20260905161036 73 339 1.0 1.0 0.00 0.00 0.00 90 1014.5
20260905160534 73 357 1.0 2.0 0.00 0.00 0.00 90 1014.5
20260905160029 73 359 2.0 3.0 0.00 0.00 0.00 89 1014.8
20260905155529 73 2 2.0 2.0 0.00 0.00 0.00 89 1014.8
20260905155027 73 7 1.0 3.0 0.00 0.00 0.00 88 1014.6
20260905154523 73 355 2.0 3.0 0.00 0.00 0.00 89 1014.6
20260905154018 73 357 2.0 2.0 0.00 0.00 0.00 88 1014.5
20260905153514 74 335 2.0 3.0 0.00 0.00 0.00 88 1014.4
20260905153013 74 331 1.0 3.0 0.00 0.00 0.00 87 1014.5